Zurück zum Katalog

AEROCUBE 6A

AktivWissenschaftSSO
NORAD 40045·PAYLOAD·🇺🇸 United States

Gestartet Jun 19, 2014 von Dombarovsky

Loading…

Nächste Überflüge (nächste 24 Stunden)

TLE

AktuellSource: Space-Track

Epoche: Sep 14, 2026, 10:26 UTC

1 40045U 14033AM  26257.43514453  .00003580  00000-0  29638-3 0  9992
2 40045  97.7333  63.5363 0039289  75.4832 285.0744 14.98915437659981

Verfolge AEROCUBE 6A in Echtzeit mit AllMySat

Download on the App Store